[[{"header":{"parameterUnit":"m.s-1","parameterCategory":2,"la1":30.2992,"la2":30.254,"lo1":-89.0895,"lo2":-89.0443,"dy":0.0025,"dx":0.0025,"nx":19,"ny":19,"refTime":"2026-03-20T09:00:00:Z","depth":"0","parameterNumber":2,"parameterNumberName":"U-component_of_CURRENTS"},"data":[0,0,0,0.3988,0.399,0.4088,0.4088,0.4296,0.4299,0,0,0,0,0,0,0,0,0,0,0,0.3939,0.3939,0.3988,0.3991,0.4088,0.4088,0.4296,0.4299,0,0,0,0,0,0,0,0,0,0,0,0.3938,0.3939,0.3939,0.3991,0.4087,0.4088,0.4295,0.4199,0,0,0,0,0,0,0,0,0,0,0.4094,0.4029,0.3939,0.3939,0.3992,0.4087,0.4088,0.4194,0.4206,0.4279,0,0.4288,0,0.4313,0.4315,0.4316,0,0,0,0.3983,0.4019,0.406,0.394,0.3993,0.4087,0.4042,0.42,0.4213,0.4295,0.4291,0.4299,0.4316,0.4317,0.4318,0.4493,0.4493,0,0,0.3977,0.3948,0.4051,0.4068,0.4013,0.4039,0.4045,0.4207,0.4212,0.4291,0.4303,0.432,0.4318,0.432,0.4493,0.4493,0,0,0,0.3967,0.3944,0.3979,0.406,0.4079,0.4042,0.4049,0.4204,0.422,0.4306,0.4322,0.432,0.4323,0.4493,0.4493,0.4413,0,0,0,0.3964,0.394,0.3976,0.3959,0.4075,0.4131,0.4042,0.4208,0.4227,0.4321,0.432,0.4325,0.4493,0.4493,0.4415,0.4365,0,0,0,0.3935,0.3937,0.3949,0.3957,0.4006,0.4128,0.4151,0.4211,0.4239,0.4316,0.4326,0.4493,0.4493,0.4417,0.437,0.4418,0,0,0,0.3901,0.3903,0.3947,0.395,0.4005,0.4064,0.415,0.4209,0.4266,0.4321,0.4493,0.4493,0.4418,0.4372,0.4419,0.4399,0.4392,0,0,0.3883,0.39,0.39,0.3943,0.3966,0.405,0.4093,0.4209,0.4298,0.4445,0.4448,0.4415,0.437,0.4418,0.4407,0.4399,0,0,0,0.388,0.3871,0.3889,0.391,0.3978,0.4033,0.4145,0.4219,0.4338,0.4337,0.444,0.4415,0.4448,0.4439,0.4433,0.4397,0.4493,0.4493,0.4493,0.3788,0.3822,0.3812,0.3862,0.3908,0.4032,0.4098,0.4223,0.4315,0.436,0.4369,0.4372,0.436,0.4356,0.4319,0.44,0.4399,0.4399,0.4399,0.371,0.3688,0.3735,0.3738,0.3824,0.3877,0.4066,0.415,0.4298,0.4341,0.4378,0.4377,0.4345,0.4308,0.4394,0.4395,0.4396,0.4396,0.4396,0.3614,0.3611,0.3617,0.3624,0.3659,0.3783,0.3878,0.4038,0.4212,0.4247,0.4313,0.4314,0.4271,0.4289,0.4289,0.4289,0.4289,0.4289,0.4289,0.3514,0.3523,0.3491,0.3512,0.3515,0.3583,0.3783,0.3911,0.4113,0.4226,0.4228,0.4262,0.434,0.4332,0.4289,0.4289,0.4289,0.4289,0.4289,0.3402,0.3419,0.3365,0.3355,0.3361,0.3375,0.359,0.383,0.3998,0.4092,0.419,0.4254,0.4291,0.4297,0.4289,0.4238,0.4238,0.4238,0.4238,0.3325,0.3332,0.3243,0.3195,0.3195,0.327,0.3361,0.3635,0.3969,0.4098,0.4147,0.4138,0.4141,0.4171,0.4179,0.417,0.409,0.4089,0.4089,0.3253,0.3245,0.3148,0.3106,0.3095,0.3145,0.3185,0.3358,0.3844,0.408,0.4098,0.4105,0.4089,0.4098,0.4146,0.416,0.4147,0,0]},{"header":{"parameterUnit":"m.s-1","parameterCategory":2,"la1":30.2992,"la2":30.254,"lo1":-89.0895,"lo2":-89.0443,"dy":0.0025,"dx":0.0025,"nx":19,"ny":19,"refTime":"2026-03-20T09:00:00:Z","depth":"0","parameterNumber":3,"parameterNumberName":"V-component_of_CURRENTS"},"data":[0,0,0,0.0944,0.0944,0.0948,0.0948,0.0946,0.0946,0,0,0,0,0,0,0,0,0,0,0,0.0938,0.0938,0.0944,0.0944,0.0949,0.0948,0.0946,0.0946,0,0,0,0,0,0,0,0,0,0,0,0.0938,0.0938,0.0938,0.0944,0.0949,0.0948,0.0946,0.0942,0,0,0,0,0,0,0,0,0,0,0.0937,0.0939,0.0938,0.0938,0.0944,0.0949,0.0948,0.0941,0.0942,0.0945,0,0.0952,0,0.0957,0.0947,0.0947,0,0,0,0.0932,0.0939,0.0942,0.0938,0.0945,0.0949,0.0943,0.0942,0.0942,0.0946,0.0952,0.0952,0.0956,0.0947,0.0947,0.1048,0.1049,0,0,0.0932,0.0935,0.0941,0.0942,0.0954,0.0943,0.0943,0.0942,0.0945,0.0952,0.0952,0.0956,0.0947,0.0947,0.1047,0.1048,0,0,0,0.0939,0.0935,0.0938,0.0942,0.0948,0.0944,0.0944,0.0945,0.0947,0.0952,0.0956,0.0947,0.0947,0.1046,0.1047,0.1148,0,0,0,0.0938,0.094,0.0938,0.0939,0.0948,0.0949,0.0947,0.0946,0.0947,0.0956,0.0947,0.0947,0.1044,0.1046,0.1143,0.1182,0,0,0,0.0936,0.094,0.0943,0.094,0.0948,0.0949,0.095,0.0946,0.095,0.0947,0.0947,0.1044,0.1046,0.1138,0.1174,0.1218,0,0,0,0.0935,0.0972,0.0943,0.0996,0.0948,0.101,0.095,0.099,0.0999,0.0947,0.1045,0.1047,0.1137,0.117,0.1214,0.1265,0.1289,0,0,0.0987,0.0978,0.1014,0.099,0.1062,0.1008,0.1092,0.1072,0.1034,0.1039,0.1041,0.1145,0.1174,0.1217,0.1405,0.1425,0,0,0,0.1036,0.1053,0.1074,0.1105,0.1133,0.1162,0.1143,0.114,0.1154,0.1051,0.1166,0.1181,0.1205,0.1227,0.1245,0.1023,0.1058,0.1058,0.1058,0.1075,0.1104,0.1165,0.1201,0.1244,0.1275,0.1304,0.1295,0.1246,0.1276,0.128,0.1404,0.1432,0.1444,0.1217,0.13,0.1301,0.1301,0.1301,0.1138,0.1168,0.1218,0.1282,0.1328,0.1391,0.1444,0.1431,0.1466,0.1401,0.1418,0.1354,0.1469,0.1219,0.1308,0.1307,0.1306,0.1306,0.1305,0.1137,0.1158,0.1201,0.1295,0.1388,0.1454,0.1567,0.1577,0.1554,0.1588,0.1577,0.1575,0.1338,0.1587,0.1588,0.1588,0.1588,0.1589,0.1589,0.1105,0.1157,0.1215,0.1311,0.1387,0.1507,0.1631,0.169,0.1723,0.1695,0.1695,0.1368,0.149,0.1458,0.1595,0.1594,0.1593,0.1593,0.1592,0.11,0.1118,0.121,0.1284,0.1473,0.1648,0.1745,0.1887,0.1896,0.192,0.1548,0.1746,0.1711,0.1696,0.167,0.1853,0.1853,0.1853,0.1853,0.1079,0.11,0.1232,0.1368,0.1543,0.1724,0.1985,0.2108,0.1887,0.1703,0.1528,0.1444,0.1443,0.1383,0.1376,0.1339,0.1434,0.1433,0.1432,0.1077,0.1123,0.1219,0.1373,0.159,0.1835,0.214,0.233,0.185,0.1386,0.1208,0.1226,0.1068,0.1085,0.0961,0.0969,0.0897,0,0]}],[{"header":{"parameterUnit":"m.s-1","parameterCategory":2,"la1":30.2992,"la2":30.254,"lo1":-89.0895,"lo2":-89.0443,"dy":0.0025,"dx":0.0025,"nx":19,"ny":19,"refTime":"2026-03-20T09:00:00:Z","depth":"2","parameterNumber":2,"parameterNumberName":"U-component_of_CURRENTS"},"data":[0,0,0,0.1938,0.1944,0.2206,0.2207,0.2472,0.2474,0,0,0,0,0,0,0,0,0,0,0,0.185,0.1852,0.1938,0.1944,0.2206,0.2207,0.2472,0.2474,0,0,0,0,0,0,0,0,0,0,0,0.1849,0.1852,0.1854,0.1945,0.2205,0.2207,0.2471,0.2293,0,0,0,0,0,0,0,0,0,0,0.2048,0.1973,0.1851,0.1854,0.1947,0.2205,0.2207,0.2285,0.2304,0.2332,0,0.2381,0,0.2431,0.249,0.2491,0,0,0,0.195,0.1957,0.2029,0.1854,0.1949,0.2205,0.2089,0.2296,0.2317,0.2357,0.2385,0.2396,0.2435,0.2492,0.2493,0.2759,0.276,0,0,0.1935,0.1897,0.2014,0.2042,0.2027,0.2081,0.2097,0.231,0.2334,0.2386,0.2403,0.244,0.2493,0.2495,0.2758,0.2759,0,0,0,0.189,0.1887,0.1955,0.203,0.2083,0.2088,0.2107,0.2324,0.2348,0.2406,0.2443,0.2495,0.2497,0.2757,0.2758,0.2836,0,0,0,0.1882,0.1861,0.1948,0.1928,0.2079,0.2216,0.2117,0.2334,0.2359,0.2442,0.2495,0.25,0.2755,0.2758,0.2832,0.28,0,0,0,0.1836,0.1856,0.1889,0.1925,0.2037,0.2214,0.2251,0.2341,0.2381,0.2491,0.25,0.2754,0.2757,0.2827,0.2795,0.2859,0,0,0,0.1783,0.1848,0.1889,0.1981,0.2034,0.2198,0.2251,0.2388,0.2483,0.2496,0.2755,0.2758,0.2826,0.2792,0.2855,0.2684,0.2687,0,0,0.183,0.1853,0.1907,0.195,0.2088,0.2162,0.2349,0.2492,0.2535,0.2678,0.2686,0.2833,0.2795,0.2858,0.2843,0.284,0,0,0,0.1899,0.1934,0.1984,0.208,0.2197,0.2337,0.2482,0.2562,0.2734,0.2605,0.2868,0.284,0.2878,0.2769,0.2768,0.2771,0.2771,0.2771,0.277,0.1896,0.1967,0.2056,0.2169,0.228,0.2482,0.2609,0.2749,0.2801,0.2895,0.2933,0.3061,0.295,0.2946,0.2999,0.3,0.3,0.3,0.3,0.1939,0.198,0.2091,0.2198,0.2352,0.2515,0.2763,0.2855,0.3047,0.3039,0.3075,0.289,0.2949,0.3007,0.3006,0.3005,0.3004,0.3004,0.3003,0.1898,0.1927,0.2007,0.2155,0.2327,0.2543,0.2729,0.2913,0.3069,0.3139,0.3037,0.3033,0.3066,0.3189,0.3189,0.3189,0.3189,0.319,0.319,0.1813,0.1894,0.1954,0.2113,0.221,0.2409,0.2707,0.285,0.3005,0.3065,0.3065,0.3124,0.3118,0.3077,0.3193,0.3192,0.3192,0.3191,0.3191,0.176,0.1788,0.1868,0.1946,0.2159,0.2275,0.2544,0.2774,0.2928,0.298,0.3035,0.3038,0.2982,0.298,0.2936,0.3009,0.3009,0.3009,0.3009,0.1694,0.1721,0.1816,0.1909,0.2039,0.2223,0.2324,0.2416,0.263,0.2572,0.259,0.2498,0.2516,0.2428,0.2439,0.2381,0.231,0.2308,0.2307,0.1658,0.1696,0.1743,0.1853,0.1986,0.2139,0.2126,0.2061,0.2091,0.2274,0.2418,0.2972,0.2884,0.2893,0.2796,0.2799,0.2721,0,0]},{"header":{"parameterUnit":"m.s-1","parameterCategory":2,"la1":30.2992,"la2":30.254,"lo1":-89.0895,"lo2":-89.0443,"dy":0.0025,"dx":0.0025,"nx":19,"ny":19,"refTime":"2026-03-20T09:00:00:Z","depth":"2","parameterNumber":3,"parameterNumberName":"V-component_of_CURRENTS"},"data":[0,0,0,-0.0082,-0.0084,-0.0166,-0.0166,-0.0308,-0.0309,0,0,0,0,0,0,0,0,0,0,0,-0.005,-0.005,-0.0082,-0.0084,-0.0166,-0.0166,-0.0308,-0.0309,0,0,0,0,0,0,0,0,0,0,0,-0.005,-0.005,-0.005,-0.0084,-0.0165,-0.0166,-0.0307,-0.0241,0,0,0,0,0,0,0,0,0,0,-0.0158,-0.0107,-0.005,-0.005,-0.0084,-0.0165,-0.0166,-0.0237,-0.0245,-0.0276,0,-0.0272,0,-0.0289,-0.0318,-0.0318,0,0,0,-0.0102,-0.0101,-0.0129,-0.005,-0.0085,-0.0165,-0.0134,-0.0241,-0.025,-0.0286,-0.0274,-0.028,-0.0291,-0.0319,-0.0319,-0.0258,-0.0257,0,0,-0.0097,-0.0066,-0.0123,-0.0134,-0.0086,-0.0131,-0.0136,-0.0246,-0.0244,-0.0275,-0.0283,-0.0294,-0.0319,-0.032,-0.026,-0.0258,0,0,0,-0.0072,-0.0062,-0.0088,-0.0128,-0.0137,-0.0133,-0.0139,-0.0239,-0.0249,-0.0285,-0.0295,-0.032,-0.0322,-0.0261,-0.0259,-0.0052,0,0,0,-0.007,-0.0047,-0.0085,-0.0068,-0.0134,-0.0182,-0.0129,-0.0241,-0.0254,-0.0295,-0.032,-0.0323,-0.0263,-0.026,-0.0062,0.0053,0,0,0,-0.005,-0.0045,-0.0049,-0.0066,-0.0094,-0.018,-0.0197,-0.0244,-0.026,-0.0318,-0.0323,-0.0265,-0.0261,-0.007,0.0037,0.0095,0,0,0,-0.0023,0.003,-0.0048,0.0018,-0.0093,-0.0053,-0.0196,-0.0196,-0.0228,-0.0321,-0.0263,-0.0259,-0.0073,0.0028,0.0086,-0.0025,0.0006,0,0,0.0069,0.0042,0.0086,0.0015,0.0095,-0.0044,0.005,-0.0071,-0.018,-0.0238,-0.0237,-0.0058,0.0036,0.0093,0.02,0.0224,0,0,0,0.0133,0.0165,0.0178,0.0198,0.0182,0.0197,0.0079,0.004,-0.0005,-0.018,-0.0037,0.0017,0.0045,-0.0039,-0.0019,-0.0241,-0.0241,-0.0242,-0.0242,0.028,0.0278,0.0371,0.0373,0.0395,0.0359,0.037,0.0295,0.0153,0.0181,0.0201,0.0412,0.0329,0.0341,0.0203,0.0204,0.0205,0.0205,0.0206,0.0437,0.0491,0.0509,0.0593,0.0601,0.0657,0.0635,0.0564,0.0562,0.0425,0.044,0.0204,0.0375,0.0223,0.022,0.0217,0.0215,0.0214,0.0213,0.0515,0.0548,0.0595,0.071,0.082,0.0832,0.094,0.0881,0.0769,0.0809,0.0617,0.0611,0.0508,0.0781,0.0782,0.0783,0.0784,0.0784,0.0785,0.0564,0.0621,0.0712,0.0832,0.092,0.1046,0.1102,0.1113,0.1002,0.0858,0.0854,0.0605,0.0586,0.054,0.0798,0.0795,0.0794,0.0792,0.0792,0.0652,0.0656,0.0792,0.0885,0.1104,0.1277,0.1312,0.1294,0.1235,0.1178,0.0847,0.0841,0.075,0.073,0.0686,0.0966,0.0966,0.0966,0.0966,0.0688,0.0709,0.0866,0.1022,0.1228,0.1387,0.1498,0.1305,0.1069,0.0782,0.0789,0.0632,0.0629,0.0519,0.0503,0.0449,0.0669,0.0668,0.0668,0.0744,0.0779,0.0892,0.1044,0.1287,0.151,0.1567,0.1297,0.0768,0.0654,0.072,0.0949,0.073,0.0721,0.0551,0.0527,0.0438,0,0]}],[{"header":{"parameterUnit":"m.s-1","parameterCategory":2,"la1":30.2992,"la2":30.254,"lo1":-89.0895,"lo2":-89.0443,"dy":0.0025,"dx":0.0025,"nx":19,"ny":19,"refTime":"2026-03-20T09:00:00:Z","depth":"4","parameterNumber":2,"parameterNumberName":"U-component_of_CURRENTS"},"data":[0,0,0,0.0686,0.0688,0.084,0.0841,0.0919,0.0919,0,0,0,0,0,0,0,0,0,0,0,0.0661,0.0662,0.0685,0.0688,0.084,0.0841,0.0919,0.0919,0,0,0,0,0,0,0,0,0,0,0,0.0661,0.0662,0.0663,0.0688,0.084,0.0842,0.0919,0.0842,0,0,0,0,0,0,0,0,0,0,0.0713,0.0691,0.0662,0.0663,0.0689,0.084,0.0842,0.084,0.0847,0.0803,0,0.0828,0,0.0841,0.0917,0.0917,0,0,0,0.0727,0.0686,0.0716,0.0663,0.069,0.0839,0.0783,0.0845,0.0853,0.0811,0.0829,0.0832,0.0843,0.0917,0.0917,0.0934,0.0934,0,0,0.0719,0.0698,0.0711,0.072,0.0727,0.0777,0.0787,0.0852,0.086,0.083,0.0834,0.0844,0.0917,0.0917,0.0934,0.0934,0,0,0,0.0668,0.0692,0.0725,0.0717,0.0735,0.0781,0.0792,0.0859,0.0867,0.0835,0.0845,0.0917,0.0917,0.0934,0.0934,0.1023,0,0,0,0.0665,0.0659,0.072,0.0711,0.0735,0.0812,0.0798,0.0865,0.0872,0.0844,0.0917,0.0917,0.0933,0.0934,0.1019,0.1011,0,0,0,0.0655,0.0657,0.0673,0.0709,0.0753,0.0812,0.0828,0.0869,0.0873,0.0917,0.0917,0.0933,0.0934,0.1017,0.1007,0.1034,0,0,0,0.0631,0.0655,0.0673,0.071,0.0751,0.0822,0.0828,0.0893,0.0935,0.0917,0.0933,0.0934,0.1016,0.1005,0.1032,0.0911,0,0,0,0.0643,0.0657,0.0679,0.0697,0.0754,0.0804,0.0875,0.0932,0.0927,0.0909,0.0911,0.102,0.1007,0.1034,0.0956,0,0,0,0,0.0671,0.0684,0.0707,0.0747,0.0799,0.0869,0.0921,0.0945,0.1002,0.0946,0.1011,0.0998,0.1013,0.0936,0.0938,0.0938,0.0937,0.0937,0.0937,0.0649,0.0687,0.0729,0.0785,0.0835,0.0915,0.0973,0.1008,0.1016,0.1057,0.1066,0.1132,0.1056,0.1083,0.1084,0.1084,0.1085,0.1085,0.1085,0.0654,0.0673,0.0741,0.0801,0.0875,0.0944,0.1023,0.1064,0.1125,0.1121,0.1134,0.1028,0.1094,0.1092,0.1091,0.109,0.1089,0.1088,0.1088,0.0615,0.0632,0.0691,0.0781,0.0881,0.0981,0.1051,0.1135,0.1171,0.1205,0.1129,0.117,0.1167,0.1244,0.1245,0.1245,0.1245,0.1245,0.1245,0.055,0.0603,0.0654,0.0764,0.0837,0.0951,0.1093,0.1128,0.1203,0.1172,0.1238,0.1184,0.1179,0.1173,0.1247,0.1246,0.1246,0.1246,0.1246,0.049,0.052,0.058,0.0647,0.0797,0.0862,0.1022,0.1102,0.1132,0.112,0.1146,0.115,0.1093,0.1089,0.1079,0.1127,0.1125,0.1124,0,0.0436,0.0457,0.0529,0.0597,0.0674,0.08,0.0845,0.0927,0.1002,0.0978,0.1076,0.1099,0.1103,0.1031,0.1026,0.1008,0,0,0,0.0397,0.0428,0.0458,0.0537,0.0618,0.0722,0.0852,0.0864,0.1011,0.1023,0.1091,0.11,0.116,0.1252,0.1173,0.1167,0.1153,0,0]},{"header":{"parameterUnit":"m.s-1","parameterCategory":2,"la1":30.2992,"la2":30.254,"lo1":-89.0895,"lo2":-89.0443,"dy":0.0025,"dx":0.0025,"nx":19,"ny":19,"refTime":"2026-03-20T09:00:00:Z","depth":"4","parameterNumber":3,"parameterNumberName":"V-component_of_CURRENTS"},"data":[0,0,0,-0.0092,-0.0094,-0.0218,-0.0219,-0.0393,-0.0394,0,0,0,0,0,0,0,0,0,0,0,-0.0072,-0.0072,-0.0092,-0.0094,-0.0218,-0.0219,-0.0393,-0.0394,0,0,0,0,0,0,0,0,0,0,0,-0.0072,-0.0072,-0.0073,-0.0094,-0.0218,-0.0219,-0.0392,-0.0305,0,0,0,0,0,0,0,0,0,0,-0.0187,-0.0147,-0.0072,-0.0073,-0.0094,-0.0217,-0.0219,-0.0302,-0.0311,-0.0327,0,-0.0335,0,-0.0339,-0.0402,-0.0402,0,0,0,-0.0138,-0.014,-0.0163,-0.0073,-0.0095,-0.0217,-0.0174,-0.0307,-0.0317,-0.0339,-0.0337,-0.0343,-0.0342,-0.0403,-0.0403,-0.0481,-0.0481,0,0,-0.0131,-0.0109,-0.0156,-0.0169,-0.0112,-0.017,-0.0178,-0.0314,-0.0323,-0.0338,-0.0347,-0.0345,-0.0403,-0.0404,-0.0481,-0.0481,0,0,0,-0.0082,-0.0104,-0.0126,-0.0163,-0.0168,-0.0172,-0.0181,-0.0319,-0.0323,-0.0348,-0.0347,-0.0404,-0.0406,-0.0481,-0.0481,-0.0458,0,0,0,-0.008,-0.0072,-0.0123,-0.0114,-0.0165,-0.0239,-0.0183,-0.0315,-0.0329,-0.0346,-0.0404,-0.0407,-0.0481,-0.0481,-0.0459,-0.0415,0,0,0,-0.0069,-0.0071,-0.0079,-0.0112,-0.0142,-0.0237,-0.0252,-0.0319,-0.0326,-0.0402,-0.0407,-0.0481,-0.0481,-0.0459,-0.0418,-0.0413,0,0,0,-0.0053,-0.0065,-0.0078,-0.0094,-0.014,-0.0191,-0.0252,-0.0313,-0.0374,-0.0405,-0.0481,-0.0481,-0.0459,-0.0419,-0.0414,-0.033,0,0,0,-0.0058,-0.0065,-0.0074,-0.0088,-0.0114,-0.0178,-0.0227,-0.0331,-0.0379,-0.0446,-0.0448,-0.0458,-0.0418,-0.0413,-0.0327,0,0,0,0,-0.0069,-0.0071,-0.0084,-0.0101,-0.0141,-0.0188,-0.0275,-0.032,-0.0408,-0.0405,-0.0463,-0.0438,-0.0436,-0.0391,-0.0481,-0.0481,-0.0481,-0.0481,-0.0481,-0.0061,-0.0073,-0.0081,-0.0102,-0.0134,-0.0204,-0.0256,-0.033,-0.0387,-0.0418,-0.0424,-0.0405,-0.0359,-0.0448,-0.0448,-0.0448,-0.0448,-0.0448,-0.0447,-0.0049,-0.0047,-0.0064,-0.0074,-0.0113,-0.0155,-0.0244,-0.0296,-0.0364,-0.0407,-0.0408,-0.0375,-0.0445,-0.0446,-0.0446,-0.0446,-0.0446,-0.0447,-0.0447,-0.0028,-0.0026,-0.0031,-0.0035,-0.0059,-0.0119,-0.0134,-0.0225,-0.0317,-0.0329,-0.0301,-0.0382,-0.0378,-0.0346,-0.0346,-0.0346,-0.0346,-0.0346,-0.0346,-0.0002,-0.0004,0.0012,0.0005,0.0007,-0.0005,-0.0076,-0.0114,-0.0218,-0.0238,-0.032,-0.0371,-0.0374,-0.0372,-0.0342,-0.0343,-0.0343,-0.0344,-0.0344,0.0027,0.003,0.0061,0.0073,0.0089,0.009,0.004,-0.0024,-0.006,-0.0105,-0.0201,-0.0209,-0.0205,-0.0212,-0.0204,-0.0123,-0.0122,-0.0121,0,0.005,0.0052,0.0099,0.0131,0.0164,0.014,0.0149,0.0096,-0.0029,-0.0023,-0.0097,-0.0204,-0.021,-0.0205,-0.021,-0.02,0,0,0,0.007,0.0083,0.012,0.0149,0.0185,0.0171,0.015,0.013,0.0008,-0.0009,-0.009,-0.0098,-0.0221,-0.0333,-0.0345,-0.0349,-0.0346,0,0]}]]